Date,TemperatureHighF,TemperatureAvgF,TemperatureLowF,DewpointHighF,DewpointAvgF,DewpointLowF,HumidityHigh,HumidityAvg,HumidityLow,PressureMaxIn,PressureMinIn,WindSpeedMaxMPH,WindSpeedAvgMPH,GustSpeedMaxMPH,PrecipitationSumIn
2012-1-1,46.4,37.5,30.2,42.4,29.5,19.5,97,73,54,30.11,29.53,30,17,0,0.33
2012-1-2,30.2,24.0,19.4,22.3,15.5,9.5,90,70,57,30.30,30.06,27,16,0,0.05
2012-1-3,30.2,22.0,12.2,19.6,13.7,7.8,83,71,53,30.34,29.98,10,6,0,0.00
2012-1-4,46.4,35.2,26.6,31.9,25.6,17.1,82,69,50,29.98,29.81,13,7,0,0.00
2012-1-5,51.8,39.5,28.4,37.9,32.2,25.3,92,76,55,29.96,29.69,13,5,0,0.00
2012-1-6,59.0,45.6,35.6,41.4,36.1,30.7,83,71,50,29.71,29.59,13,5,0,0.00
2012-1-7,46.4,36.7,28.4,32.9,30.0,26.4,94,77,58,30.12,29.71,13,6,0,0.00
2012-1-8,41.0,32.9,23.0,30.9,27.2,22.3,98,81,56,30.24,30.12,7,1,0,0.00
2012-1-9,50.0,35.1,21.2,33.2,26.4,19.5,97,73,39,30.15,29.90,11,3,0,0.00
2012-1-10,55.4,38.5,26.6,35.4,29.8,24.9,94,74,41,29.96,29.68,8,2,0,0.00
2012-1-11,46.4,39.6,28.4,42.1,35.9,26.6,96,87,77,29.67,29.36,10,4,0,0.06
2012-1-12,35.6,22.4,14.0,33.5,19.8,10.3,96,89,83,29.60,29.38,25,13,0,0.00
2012-1-13,21.2,16.9,12.2,16.0,12.7,8.3,88,84,78,30.03,29.61,22,11,0,0.00
2012-1-14,24.8,15.4,6.8,18.9,11.8,3.8,92,85,75,30.20,29.99,6,2,0,0.00
2012-1-15,33.8,25.4,6.8,28.0,21.3,4.3,93,85,73,30.31,29.95,11,5,0,0.00
2012-1-16,57.2,44.1,30.2,55.8,40.8,26.2,98,88,79,29.96,29.59,13,7,0,0.00
2012-1-17,57.2,38.3,19.4,56.6,36.4,15.4,98,93,82,30.19,29.47,25,14,0,2.06
2012-1-18,30.2,22.7,14.0,23.5,17.5,9.3,88,80,69,30.24,29.86,13,6,0,0.00
2012-1-19,30.2,20.6,8.6,27.9,15.6,0.9,91,81,70,30.11,29.74,17,8,0,0.00
2012-1-20,23.0,16.0,6.8,17.7,10.2,-1.5,93,78,66,30.11,29.85,15,8,0,0.00
2012-1-21,26.6,21.5,14.0,21.0,17.7,11.4,93,85,74,30.14,29.89,14,7,0,0.00
2012-1-22,50.0,34.8,23.0,47.2,33.5,21.3,98,95,69,29.99,29.36,16,7,0,0.48
2012-1-23,50.0,38.0,32.0,44.2,31.6,16.6,92,79,28,29.92,29.32,26,11,0,0.13
2012-1-24,35.6,31.6,26.6,30.2,27.7,25.3,98,86,75,30.29,29.92,14,6,0,0.00
2012-1-25,32.0,30.3,23.0,31.5,29.5,22.5,98,97,89,30.27,29.92,7,2,0,0.09
2012-1-26,35.6,33.4,32.0,35.1,32.9,31.5,98,98,98,29.94,29.55,10,5,0,0.65
2012-1-27,42.8,35.6,32.0,35.1,32.9,30.5,98,90,65,29.95,29.59,14,6,0,0.00
2012-1-28,37.4,33.0,28.4,33.3,27.2,22.3,98,80,54,30.13,29.84,22,11,0,0.02
2012-1-29,35.6,31.7,23.0,27.7,24.8,20.5,96,76,59,30.18,29.96,24,8,0,0.02
2012-1-30,55.4,41.2,23.0,44.2,34.9,22.0,97,79,63,30.15,29.85,16,8,0,0.00
2012-1-31,59.0,50.6,42.8,53.5,45.4,36.1,98,83,71,29.89,29.79,15,9,0,0.03
2012-2-1,53.6,42.2,33.8,53.0,40.6,33.3,98,94,75,30.08,29.87,10,4,0,0.00
2012-2-2,51.8,38.0,32.0,45.0,36.1,31.5,98,94,70,30.29,30.08,5,2,0,0.00
2012-2-3,53.6,41.6,32.0,45.0,38.0,31.5,98,88,60,30.33,30.17,11,4,0,0.00
2012-2-4,41.0,38.8,35.6,40.5,38.3,35.1,98,98,98,30.20,29.98,14,9,0,0.29
2012-2-5,46.4,35.9,28.4,40.4,33.3,27.9,98,91,63,30.20,30.06,7,4,0,0.01
2012-2-6,33.8,30.0,23.0,33.3,29.4,22.5,98,98,95,30.19,30.08,9,3,0,0.00
2012-2-7,37.4,32.3,28.4,33.5,30.9,27.9,98,95,82,30.24,30.10,10,5,0,0.00
2012-2-8,32.0,30.4,28.4,31.5,28.7,24.5,98,94,79,30.30,30.23,10,7,0,0.00
2012-2-9,37.4,30.5,21.2,29.1,24.4,18.7,96,78,57,30.29,30.07,10,4,0,0.00
2012-2-10,35.6,29.3,17.6,35.1,27.8,13.3,98,94,83,30.09,29.84,21,10,0,0.02
2012-2-11,26.6,18.1,12.2,16.0,10.4,6.4,83,71,55,30.34,30.10,24,15,0,0.05
2012-2-12,37.4,25.1,15.8,20.2,13.3,7.5,75,61,40,30.36,30.18,19,9,0,0.00
2012-2-13,35.6,28.3,19.4,29.7,21.0,12.5,98,76,38,30.17,29.80,12,5,0,0.00
2012-2-14,35.6,32.7,28.4,35.1,32.1,27.9,98,97,94,29.98,29.75,7,4,0,0.09
2012-2-15,41.0,36.5,30.2,40.5,36.0,29.7,98,98,98,30.02,29.88,11,5,0,0.00
2012-2-16,46.4,39.3,32.0,43.6,37.7,29.4,98,94,84,30.10,29.85,17,6,0,0.16
2012-2-17,50.0,38.1,24.8,39.5,32.8,24.3,98,83,54,30.13,29.97,12,4,0,0.00
2012-2-18,42.8,34.1,26.6,35.3,30.7,25.6,98,88,65,30.10,29.99,13,7,0,0.00
2012-2-19,41.0,29.9,23.0,30.5,26.0,22.5,98,87,62,30.12,30.02,13,5,0,0.00
2012-2-20,44.6,32.7,17.6,30.2,25.8,17.1,98,78,50,30.22,29.80,10,4,0,0.00
2012-2-21,46.4,40.7,35.6,45.0,38.9,29.2,98,93,72,29.78,29.58,20,7,0,0.11
2012-2-22,53.6,42.5,33.8,40.5,35.6,31.0,98,78,52,29.67,29.31,12,4,0,0.00
2012-2-23,48.2,39.3,30.2,44.8,38.4,29.7,98,97,86,29.43,29.21,15,5,0,0.02
2012-2-24,41.0,35.4,28.4,40.5,31.0,20.2,98,84,65,29.96,29.28,28,16,0,0.03
2012-2-25,32.0,27.2,23.0,24.8,20.0,15.7,90,75,56,30.24,29.97,20,9,0,0.00
2012-2-26,53.6,38.0,21.2,33.3,27.4,19.5,93,68,42,30.23,29.96,19,8,0,0.26
2012-2-27,46.4,37.3,26.6,36.1,26.4,22.1,95,66,42,30.40,30.01,17,7,0,0.00
2012-2-28,53.6,40.9,23.0,49.5,31.6,22.5,98,73,44,30.39,29.65,9,5,0,0.12
2012-2-29,64.4,55.2,35.6,60.2,41.2,-38.2,98,66,1,29.67,29.40,31,13,0,0.39
2012-3-1,55.4,41.6,33.8,36.4,32.2,27.1,82,70,44,29.81,29.61,17,7,0,0.00
2012-3-2,59.0,42.5,33.8,57.3,39.2,32.8,98,89,70,29.61,29.11,27,10,0,0.54
2012-3-3,35.6,32.5,30.2,32.5,27.2,24.0,95,81,70,29.80,29.61,21,11,0,0.00
2012-3-4,41.0,32.1,26.6,31.0,25.2,22.3,98,77,52,29.90,29.76,14,8,0,0.00
2012-3-5,37.4,29.9,21.2,29.1,25.8,20.7,98,85,64,30.32,29.91,13,6,0,0.00
2012-3-6,68.0,49.6,32.0,44.7,35.8,27.1,88,61,41,30.19,29.91,23,11,0,0.39
2012-3-7,68.0,58.6,46.4,55.8,44.3,32.2,89,59,44,30.01,29.81,25,13,0,2.33
2012-3-8,60.8,44.2,35.6,60.2,39.1,26.1,98,83,60,30.26,29.77,21,12,0,0.10
2012-3-9,44.6,35.9,28.4,28.6,21.6,15.9,87,58,34,30.45,30.25,19,9,0,0.01
2012-3-10,59.0,41.4,26.6,34.5,27.1,19.9,79,59,36,30.44,30.19,14,6,0,0.00
2012-3-11,66.2,49.6,33.8,49.5,35.9,26.7,86,61,43,30.21,29.95,12,5,0,0.00
2012-3-12,77.0,62.5,51.8,62.3,56.4,51.3,98,83,49,29.95,29.67,23,10,0,0.59
2012-3-13,78.8,56.7,42.8,57.7,49.9,42.3,98,81,34,30.03,29.87,8,2,0,0.00
2012-3-14,80.6,66.1,51.8,65.6,59.8,51.0,98,82,56,30.00,29.86,16,6,0,0.00
2012-3-15,80.6,68.9,60.8,67.3,63.3,60.2,98,84,53,29.99,29.87,14,6,0,0.00
2012-3-16,80.6,66.1,55.4,62.3,57.7,53.1,98,78,41,30.02,29.93,9,4,0,0.00
2012-3-17,80.6,65.6,53.6,67.9,60.8,53.0,98,86,59,30.02,29.87,11,5,0,0.18
2012-3-18,80.6,66.9,55.4,69.2,62.5,54.8,98,87,58,30.01,29.89,10,5,0,0.04
2012-3-19,80.6,70.4,60.8,67.3,62.1,56.6,98,77,51,29.95,29.81,15,7,0,0.05
2012-3-20,82.4,72.7,62.6,60.5,58.0,54.9,82,62,42,29.96,29.85,18,6,0,0.16
2012-3-21,84.2,73.7,64.4,61.5,57.8,50.4,83,60,33,30.02,29.90,15,5,0,0.00
2012-3-22,77.0,69.7,62.6,63.0,59.0,54.8,87,69,56,30.00,29.90,10,5,0,0.00
2012-3-23,73.4,60.5,48.2,63.5,57.4,47.7,98,91,54,29.90,29.68,15,3,0,0.36
2012-3-24,68.0,56.2,48.2,60.2,54.0,47.7,98,93,72,29.83,29.67,8,2,0,0.14
2012-3-25,71.6,58.7,50.0,63.7,56.3,49.5,98,92,70,30.00,29.82,12,4,0,0.01
2012-3-26,53.6,48.4,44.6,51.3,42.5,35.7,98,81,59,30.21,30.00,16,8,0,0.00
2012-3-27,73.4,60.2,41.0,54.2,44.6,35.0,82,58,39,30.14,29.78,14,8,0,0.00
2012-3-28,75.2,64.1,46.4,60.4,48.2,36.6,98,61,28,29.91,29.77,20,8,0,0.00
2012-3-29,60.8,49.9,37.4,53.0,44.5,36.9,98,83,55,30.02,29.83,7,3,0,0.02
2012-3-30,75.2,59.6,46.4,64.6,53.3,45.3,98,82,51,29.83,29.59,17,8,0,0.00
2012-3-31,62.6,50.6,42.8,50.6,46.1,41.7,98,86,58,29.86,29.74,11,6,0,0.00
2012-4-1,82.4,64.2,50.0,69.4,59.8,49.2,98,88,53,29.76,29.50,11,6,0,0.24
2012-4-2,73.4,62.4,53.6,58.7,55.8,52.8,98,81,57,29.78,29.59,14,7,0,0.00
2012-4-3,86.0,65.2,51.8,67.7,56.4,48.6,96,76,38,29.80,29.66,11,4,0,0.00
2012-4-4,71.6,58.0,46.4,57.4,48.1,34.9,95,72,41,29.79,29.68,18,10,0,0.00
2012-4-5,62.6,50.5,37.4,39.1,35.9,30.8,90,59,32,30.03,29.75,17,10,0,0.00
2012-4-6,62.6,44.8,32.0,36.3,32.1,26.8,98,66,26,30.20,30.03,12,5,0,0.00
2012-4-7,66.2,51.5,30.2,44.7,35.0,26.4,98,58,30,30.24,30.08,9,3,0,0.00
2012-4-8,68.0,56.3,42.8,51.0,31.4,-15.7,98,52,3,30.25,30.02,16,8,0,0.00
2012-4-9,68.0,55.8,44.6,37.9,20.7,-38.2,61,35,1,30.02,29.86,26,10,0,0.05
2012-4-10,53.6,44.0,32.0,25.3,23.0,20.1,70,45,28,30.06,29.93,23,10,0,0.05
2012-4-11,57.2,41.7,26.6,31.1,25.6,20.6,83,56,32,30.19,30.06,13,5,0,0.00
2012-4-12,66.2,46.6,26.6,36.6,28.9,24.2,98,55,22,30.22,30.03,7,1,0,0.00
2012-4-13,62.6,51.4,35.6,46.2,36.6,28.5,78,59,29,30.10,29.96,15,5,0,0.02
2012-4-14,64.4,58.1,51.8,63.8,56.0,44.4,98,93,71,29.96,29.70,11,5,0,0.37
2012-4-15,75.2,68.8,62.6,67.9,64.4,60.2,98,86,75,29.71,29.55,21,11,0,0.08
2012-4-16,64.4,55.8,42.8,63.8,50.8,42.3,98,85,58,30.15,29.53,23,10,0,0.50
2012-4-17,64.4,51.8,39.2,49.6,43.0,38.7,98,75,44,30.28,30.14,11,2,0,0.00
2012-4-18,71.6,57.0,37.4,51.1,45.7,36.9,98,69,41,30.18,29.91,13,3,0,0.00
2012-4-19,77.0,64.1,51.8,53.0,48.7,42.3,91,61,29,29.93,29.65,13,5,0,0.00
2012-4-20,62.6,50.7,41.0,58.5,47.2,39.9,98,89,61,29.88,29.59,17,9,0,0.20
2012-4-21,55.4,46.7,41.0,44.6,40.0,35.7,98,79,50,29.94,29.86,14,7,0,0.00
2012-4-22,59.0,45.7,37.4,44.8,35.1,26.4,98,70,37,29.99,29.83,20,8,0,0.01
2012-4-23,62.6,47.4,32.0,34.0,29.1,24.2,94,53,26,29.97,29.75,22,9,0,0.04
2012-4-24,64.4,52.8,37.4,49.8,40.5,32.7,89,65,39,29.75,29.58,13,4,0,0.00
2012-4-25,77.0,62.0,46.4,63.8,55.4,45.9,98,81,54,29.65,29.46,13,5,0,0.00
2012-4-26,69.8,59.2,41.0,63.8,50.2,29.0,98,74,53,30.03,29.46,20,11,0,0.00
2012-4-27,60.8,48.7,32.0,32.2,24.3,18.2,74,41,22,30.16,29.93,14,6,0,0.00
2012-4-28,59.0,49.6,44.6,54.5,44.9,31.7,98,85,46,30.04,29.82,16,8,0,0.06
2012-4-29,60.8,51.7,44.6,59.7,51.1,43.5,98,98,90,30.11,29.90,12,6,0,0.07
2012-4-30,71.6,63.3,57.2,68.9,62.4,56.6,98,97,86,29.92,29.80,16,6,0,0.59
2012-5-1,75.2,62.6,55.4,74.6,62.0,54.8,98,98,98,29.91,29.70,8,1,0,0.61
2012-5-2,84.2,73.0,62.6,76.4,68.8,62.0,98,88,59,29.88,29.73,21,6,0,0.01
2012-5-3,86.0,75.6,66.2,73.1,68.6,63.2,98,81,56,29.91,29.73,15,6,0,0.02
2012-5-4,69.8,66.4,62.6,69.2,65.8,62.0,98,98,98,29.85,29.79,7,3,0,0.00
2012-5-5,87.8,77.2,57.2,73.2,68.3,56.6,98,77,49,29.88,29.79,9,4,0,0.00
2012-5-6,89.6,74.4,62.6,76.3,68.8,62.0,98,85,51,29.87,29.72,23,5,0,0.06
2012-5-7,73.4,67.1,59.0,72.8,66.5,58.4,98,98,98,29.79,29.68,21,6,0,0.13
2012-5-8,71.6,61.8,53.6,58.4,51.5,45.8,98,73,43,29.82,29.76,17,5,0,0.00
2012-5-9,68.0,58.7,46.4,53.2,50.0,45.9,98,75,52,29.87,29.78,15,7,0,0.00
2012-5-10,75.2,57.8,39.2,53.0,43.9,38.3,98,65,28,29.96,29.86,10,3,0,0.00
2012-5-11,78.8,62.5,42.8,48.8,44.6,39.8,98,57,26,30.07,29.96,8,3,0,0.00
2012-5-12,78.8,65.4,55.4,60.0,52.4,46.5,94,66,34,30.14,30.04,12,3,0,0.02
2012-5-13,78.8,64.0,50.0,59.1,52.2,43.4,94,67,48,30.11,29.95,13,6,0,0.00
2012-5-14,80.6,67.0,51.8,52.9,29.4,-31.7,65,36,1,30.02,29.89,14,4,0,0.00
2012-5-15,84.2,68.8,46.4,50.1,43.6,-13.1,94,47,2,29.95,29.79,15,4,0,0.00
2012-5-16,75.2,65.1,50.0,57.3,42.9,29.2,98,47,22,30.01,29.79,19,9,0,0.00
2012-5-17,78.8,62.5,41.0,44.8,38.1,15.2,81,45,9,30.06,29.92,10,3,0,0.00
2012-5-18,87.8,69.2,46.4,53.5,45.9,41.3,92,49,22,30.00,29.86,9,3,0,0.00
2012-5-19,87.8,87.8,87.8,64.4,63.1,61.8,46,44,42,29.95,29.94,6,5,0,0.00
2012-5-20,91.4,74.8,62.6,69.8,64.3,59.9,98,75,38,30.03,29.84,13,6,0,0.74
2012-5-21,66.2,61.1,50.0,63.8,58.7,49.5,98,92,64,30.03,29.91,13,6,0,0.00
2012-5-22,75.2,60.8,46.4,54.6,49.4,44.1,98,70,35,29.98,29.80,13,5,0,0.00
2012-5-23,82.4,61.5,42.8,57.7,50.8,42.3,98,74,34,29.83,29.70,9,2,0,0.00
2012-5-25,89.6,82.6,71.6,75.9,65.9,57.2,91,59,38,29.93,29.85,8,2,0,0.00
2012-5-26,93.2,82.0,66.2,74.9,68.6,57.9,98,66,45,30.00,29.88,11,3,0,0.00
2012-5-27,95.0,83.5,71.6,74.6,66.8,52.5,98,63,24,29.91,29.79,9,5,0,0.00
2012-5-28,95.0,82.6,69.8,72.8,65.9,59.0,98,61,34,29.80,29.65,12,5,0,0.00
2012-5-29,86.0,73.8,64.4,71.9,62.0,54.2,98,70,38,29.80,29.67,13,3,0,0.50
2012-5-30,77.0,66.0,53.6,58.0,51.7,46.2,96,63,37,29.84,29.75,20,6,0,0.00
2012-5-31,62.6,54.8,50.0,58.1,52.5,49.5,98,93,68,29.85,29.65,16,8,0,0.41
2012-6-1,64.4,55.3,51.8,55.9,51.9,46.5,98,89,63,29.75,29.65,19,10,0,0.01
2012-6-2,71.6,62.6,55.4,62.0,58.1,54.8,98,87,57,29.74,29.69,11,3,0,0.04
2012-6-3,80.6,67.9,53.6,67.4,58.1,53.0,98,75,45,29.81,29.71,12,4,0,0.00
2012-6-4,77.0,65.1,59.0,71.8,63.5,56.0,98,95,65,29.81,29.68,6,1,0,0.13
2012-6-5,77.0,69.5,55.4,61.3,56.4,49.5,98,65,43,29.89,29.81,12,6,0,0.00
2012-6-6,80.6,65.6,48.2,62.0,54.2,47.7,98,71,37,29.99,29.89,10,3,0,0.00
2012-6-7,86.0,68.5,50.0,61.7,53.1,44.5,98,65,25,30.05,29.94,8,1,0,0.00
2012-6-8,87.8,72.0,51.8,62.9,55.5,49.6,98,62,27,30.02,29.85,7,2,0,0.00
2012-6-9,87.8,73.9,59.0,63.7,59.0,54.2,98,64,34,29.91,29.78,10,3,0,0.00
2012-6-10,89.6,77.9,62.6,70.4,64.6,60.7,98,67,42,29.89,29.79,13,4,0,0.00
2012-6-11,82.4,73.4,68.0,77.9,71.9,67.4,98,95,81,29.82,29.67,10,3,0,0.09
2012-6-12,80.6,70.0,55.4,69.2,56.1,46.3,98,67,30,30.03,29.80,15,7,0,0.00
2012-6-13,80.6,66.4,46.4,59.1,54.3,45.9,98,69,43,30.09,29.96,10,3,0,0.01
2012-6-14,87.8,71.8,51.8,58.1,54.5,51.3,98,60,29,30.03,29.88,10,3,0,0.00
2012-6-15,91.4,75.3,55.4,62.8,58.1,54.2,98,60,29,30.01,29.91,8,2,0,0.00
2012-6-16,93.2,80.1,66.2,77.1,70.4,56.0,98,74,52,29.98,29.81,14,5,0,0.30
2012-6-17,87.8,76.4,68.0,79.5,72.1,67.4,98,88,59,29.87,29.73,10,4,0,0.62
2012-6-18,91.4,80.2,69.8,77.4,71.5,66.6,98,77,52,29.80,29.67,15,6,0,0.00
2012-6-19,91.4,80.8,69.8,76.6,71.3,67.7,98,76,48,29.93,29.81,14,5,0,0.00
2012-6-20,91.4,80.8,68.0,72.8,67.7,60.6,98,68,36,29.99,29.84,10,4,0,0.00
2012-6-21,87.8,75.5,62.6,78.2,70.5,62.0,98,85,61,29.90,29.84,13,5,0,0.23
2012-6-22,84.2,72.5,59.0,71.2,63.4,58.4,98,76,46,29.93,29.87,10,3,0,0.00
2012-6-23,86.0,78.6,71.6,74.8,67.0,59.2,98,70,43,29.96,29.88,5,1,0,0.00
2012-6-24,89.6,76.1,62.6,74.2,68.8,62.0,98,81,51,29.92,29.81,6,1,0,0.00
2012-6-25,82.4,72.9,59.0,72.8,64.8,56.0,98,79,43,29.92,29.82,13,7,0,0.00
2012-6-26,84.2,68.4,50.0,61.1,55.3,49.5,98,68,38,29.97,29.83,10,2,0,0.00
2012-6-27,91.4,75.3,55.4,61.3,58.3,54.8,98,60,32,29.93,29.73,10,4,0,0.00
2012-6-28,100.4,85.5,71.6,80.0,69.5,56.5,98,60,47,29.80,29.71,13,4,0,0.00
2012-6-29,98.6,86.2,77.0,97.9,85.1,76.4,98,97,76,29.78,29.68,15,3,0,0.01
2012-6-30,91.4,78.7,69.8,90.8,78.1,69.2,98,98,98,29.79,29.70,11,2,0,0.00
2012-7-1,91.4,80.6,69.8,90.8,80.0,69.2,98,98,98,29.87,29.77,9,2,0,0.00
2012-7-2,98.6,82.5,68.0,97.9,81.5,67.4,98,97,48,29.91,29.80,9,2,0,0.00
2012-7-3,96.8,83.4,69.8,96.1,82.8,69.2,98,98,98,29.90,29.75,9,3,0,0.00
2012-7-4,100.4,86.8,73.4,99.7,86.2,72.8,98,98,98,29.84,29.77,8,3,0,0.00
2012-7-5,91.4,78.5,73.4,90.8,77.9,72.8,98,98,98,29.87,29.82,7,1,0,0.00
2012-7-6,102.2,94.6,80.6,99.9,93.7,80.0,98,98,92,29.90,29.81,9,2,0,0.00
2012-7-7,104.0,88.4,73.4,99.9,87.6,72.8,98,98,95,29.90,29.79,9,2,0,0.00
2012-7-8,84.2,73.1,68.0,83.6,72.5,67.4,98,98,98,29.91,29.86,10,4,0,0.00
2012-7-9,91.4,81.9,68.0,90.8,79.2,-99.9,98,96,98,29.94,29.87,9,3,0,0.00
2012-7-10,91.4,77.3,60.8,90.8,76.7,60.2,98,98,98,29.98,29.92,11,4,0,0.00
2012-7-11,91.4,77.0,60.8,90.8,76.4,60.2,98,98,98,30.02,29.93,7,2,0,0.00
2012-7-12,95.0,77.1,62.6,94.3,76.5,62.0,98,98,98,29.98,29.90,8,2,0,0.00
2012-7-13,95.0,81.2,68.0,94.3,80.6,67.4,98,98,98,30.00,29.88,9,2,0,0.00
2012-7-14,87.8,75.0,68.0,87.2,74.4,67.4,98,98,98,30.00,29.89,9,2,0,1.78
2012-7-15,93.2,80.6,68.0,92.5,80.0,67.4,98,98,98,30.00,29.90,10,2,0,0.00
2012-7-16,96.8,84.0,71.6,96.1,83.4,71.0,98,98,98,29.95,29.78,7,3,0,0.00
2012-7-17,96.8,82.8,73.4,96.1,82.2,72.8,98,98,98,29.82,29.74,8,2,0,0.69
2012-7-18,98.6,86.4,73.4,97.9,85.7,72.8,98,98,98,29.85,29.73,10,3,0,0.00
2012-7-19,95.0,82.6,71.6,94.3,82.0,71.0,98,98,98,29.83,29.72,17,5,0,0.57
2012-7-20,82.4,73.6,64.4,81.8,73.0,63.8,98,98,98,29.97,29.80,14,4,0,0.00
2012-7-21,89.6,75.4,60.8,89.0,73.5,60.2,98,95,60,30.04,29.93,6,1,0,0.00
2012-7-22,95.0,82.0,68.0,94.3,81.4,67.4,98,98,98,30.05,29.92,9,1,0,0.00
2012-7-23,98.6,85.8,73.4,97.9,84.2,72.8,98,96,55,29.97,29.83,13,4,0,0.00
2012-7-24,91.4,83.6,73.4,90.8,83.0,72.8,98,98,98,29.89,29.80,8,3,0,0.00
2012-7-25,100.4,85.9,71.6,99.7,85.3,71.0,98,98,98,29.83,29.56,13,4,0,0.00
2012-7-26,87.8,82.0,69.8,87.2,81.4,69.2,98,98,98,29.71,29.55,12,6,0,0.00
2012-7-27,87.8,75.4,64.4,87.2,74.4,63.8,98,97,66,29.88,29.71,17,5,0,0.01
2012-7-28,77.0,65.8,60.8,76.4,65.2,60.2,98,98,98,30.00,29.88,10,2,0,0.00
2012-7-29,89.6,77.4,69.8,89.0,73.6,-99.9,98,95,98,29.91,29.86,6,1,0,0.00
2012-7-30,93.2,79.0,64.4,92.5,78.4,63.8,98,98,98,29.89,29.78,7,2,0,0.00
2012-7-31,91.4,77.9,66.2,90.8,77.3,65.6,98,98,98,29.88,29.75,11,3,0,0.03
2012-8-1,91.4,76.4,60.8,90.8,75.8,60.2,98,98,98,29.88,29.76,6,1,0,0.00
2012-8-2,96.8,79.0,59.0,96.1,78.4,58.4,98,98,98,29.82,29.66,7,2,0,0.00
2012-8-3,95.0,80.3,62.6,94.3,79.7,62.0,98,98,98,29.79,29.72,10,2,0,0.00
2012-8-4,75.2,72.3,71.6,74.6,71.7,71.0,98,98,98,29.79,29.77,5,2,0,0.00
2012-8-5,86.0,77.5,64.4,85.4,76.9,63.8,98,98,98,30.05,29.96,11,4,0,0.85
2012-8-6,89.6,73.2,59.0,89.0,72.6,58.4,98,98,98,30.08,29.91,6,1,0,0.00
2012-8-7,96.8,77.1,57.2,96.1,76.5,56.6,98,98,98,29.93,29.82,8,1,0,0.00
2012-8-8,91.4,77.5,66.2,90.8,76.9,65.6,98,98,98,29.88,29.80,13,2,0,0.03
2012-8-9,87.8,74.0,64.4,87.2,73.4,63.8,98,98,98,29.84,29.66,9,4,0,0.10
2012-8-10,78.8,67.3,57.2,78.2,66.7,56.6,98,98,98,29.87,29.70,13,6,0,0.01
2012-8-11,80.6,65.1,50.0,80.0,64.5,49.5,98,98,98,29.92,29.85,15,4,0,0.00
2012-8-12,80.6,66.5,50.0,80.0,65.9,49.5,98,98,98,29.96,29.86,7,1,0,0.00
2012-8-13,71.6,66.8,62.6,71.0,66.2,62.0,98,98,98,29.91,29.78,7,2,0,0.25
2012-8-14,82.4,70.2,60.8,81.8,69.6,60.2,98,98,98,29.89,29.81,8,3,0,0.00
2012-8-15,89.6,73.7,57.2,89.0,73.1,56.6,98,98,98,29.90,29.80,8,2,0,0.00
2012-8-16,73.4,70.2,68.0,72.8,69.6,67.4,98,98,98,29.89,29.71,17,4,0,2.27
2012-8-17,77.0,66.4,55.4,76.4,65.8,54.8,98,98,98,29.93,29.84,9,3,0,0.01
2012-8-18,78.8,64.8,48.2,78.2,64.3,47.7,98,98,98,29.95,29.82,9,1,0,0.00
2012-8-19,78.8,64.9,51.8,78.2,64.3,51.3,98,98,98,29.88,29.81,8,1,0,0.00
2012-8-20,80.6,64.9,50.0,80.0,64.3,49.5,98,98,98,29.90,29.82,13,3,0,0.00
2012-8-21,80.6,66.5,50.0,80.0,65.9,49.5,98,98,98,29.99,29.89,6,1,0,0.00
2012-8-22,89.6,69.9,50.0,89.0,69.3,49.5,98,98,98,30.04,29.94,6,1,0,0.00
2012-8-23,91.4,74.8,59.0,90.8,74.2,58.4,98,98,98,30.04,29.94,6,1,0,0.00
2012-8-24,93.2,77.2,60.8,92.5,76.6,60.2,98,98,98,29.98,29.86,5,1,0,0.00
2012-8-25,91.4,77.2,60.8,90.8,76.6,60.2,98,98,98,29.99,29.90,9,2,0,0.00
2012-8-26,87.8,74.5,64.4,87.2,73.9,63.8,98,98,98,29.98,29.84,12,3,0,1.77
2012-8-27,86.0,75.2,64.4,85.4,74.6,63.8,98,98,98,29.98,29.86,10,4,0,0.24
2012-8-28,86.0,72.2,59.0,85.4,71.6,58.4,98,98,98,30.05,29.91,8,1,0,0.00
2012-8-29,87.8,73.4,60.8,87.2,72.8,60.2,98,98,98,30.01,29.89,9,1,0,0.00
2012-8-30,91.4,75.0,60.8,90.8,74.4,60.2,98,98,98,29.98,29.89,9,2,0,0.00
2012-8-31,84.2,76.0,64.4,83.6,75.4,63.8,98,98,98,30.03,29.90,8,2,0,0.00
2012-9-1,82.4,75.1,71.6,81.8,74.5,71.0,98,98,98,29.94,29.76,10,4,0,5.05
2012-9-2,77.0,73.0,71.6,76.4,72.4,71.0,98,98,98,29.76,29.66,12,5,0,0.38
2012-9-3,87.8,76.8,69.8,87.2,76.2,69.2,98,98,98,29.79,29.72,10,4,0,0.00
2012-9-4,91.4,78.6,68.0,90.8,78.0,67.4,98,98,98,29.81,29.73,7,1,0,0.00
2012-9-5,75.2,69.5,66.2,74.6,68.9,65.6,98,98,98,29.83,29.67,14,4,0,0.24
2012-9-6,87.8,78.6,64.4,87.2,78.0,63.8,98,98,98,29.81,29.76,7,2,0,0.00
2012-9-7,73.4,66.1,62.6,72.8,65.5,62.0,98,98,98,29.83,29.60,10,3,0,0.78
2012-9-8,71.6,62.3,53.6,71.0,61.7,53.0,98,98,98,29.85,29.71,14,7,0,0.00
2012-9-9,73.4,62.2,53.6,72.8,61.6,53.0,98,98,98,30.06,29.76,11,5,0,0.00
2012-9-10,82.4,62.4,48.2,81.8,61.8,47.7,98,98,98,30.14,30.04,5,1,0,0.00
2012-9-13,80.6,67.9,60.8,80.0,67.3,60.2,98,98,98,30.18,30.06,13,6,0,0.00
2012-9-14,73.4,61.2,51.8,72.8,60.6,51.3,98,98,98,30.27,30.16,12,5,0,0.20
2012-9-15,77.0,61.5,46.4,76.4,60.9,45.9,98,98,98,30.25,30.06,6,0,0,0.00
2012-9-16,80.6,63.6,46.4,80.0,63.0,45.9,98,98,98,30.06,29.89,6,1,0,0.00
2012-9-17,78.8,65.8,53.6,78.2,65.2,53.0,98,98,98,29.90,29.64,14,2,0,0.15
2012-9-18,64.4,55.1,42.8,63.8,54.5,42.3,98,98,98,29.98,29.67,17,8,0,0.00
2012-9-19,71.6,57.6,39.2,71.0,57.1,38.7,98,98,98,30.06,29.84,15,4,0,0.00
2012-9-20,77.0,62.1,46.4,76.4,61.5,45.9,98,98,98,29.87,29.79,13,5,0,0.00
2012-9-21,77.0,55.3,44.6,76.4,54.7,44.1,98,98,98,29.89,29.60,8,2,0,0.59
2012-9-22,60.8,50.4,39.2,60.2,49.9,38.7,98,98,98,30.10,29.73,22,6,0,0.01
2012-9-23,64.4,49.8,37.4,63.8,49.2,36.9,98,98,98,30.21,30.10,14,3,0,0.00
2012-9-24,69.8,53.0,32.0,69.2,52.5,31.5,98,98,98,30.18,29.89,10,3,0,0.00
2012-9-25,71.6,62.0,53.6,71.0,61.4,53.0,98,98,98,29.88,29.76,8,3,0,0.15
2012-9-26,73.4,66.4,59.0,72.8,65.8,58.4,98,98,98,30.00,29.80,9,3,0,0.26
2012-9-27,75.2,61.8,51.8,74.6,61.2,51.3,98,98,98,30.09,29.99,7,3,0,0.00
2012-9-28,71.6,58.3,50.0,71.0,57.7,49.5,98,98,98,30.07,29.96,11,3,0,0.00
2012-9-29,77.0,59.2,44.6,76.4,58.6,44.1,98,98,98,30.05,29.85,9,2,0,0.01
2012-9-30,71.6,58.1,44.6,71.0,57.5,44.1,98,98,98,29.86,29.77,14,4,0,0.00
2012-10-1,64.4,54.8,44.6,63.8,54.2,44.1,98,98,98,29.82,29.67,12,3,0,0.00
2012-10-2,60.8,56.5,53.6,60.2,55.9,53.0,98,98,98,29.78,29.66,13,6,0,0.15
2012-10-3,71.6,60.9,55.4,65.9,58.5,54.8,98,93,64,29.96,29.76,10,3,0,0.04
2012-10-4,80.6,64.0,50.0,78.2,61.7,49.5,98,93,68,30.09,29.94,13,5,0,0.02
2012-10-5,51.8,44.5,37.4,51.3,44.0,36.9,98,98,98,30.13,30.02,10,4,0,0.70
2012-10-6,51.8,41.1,32.0,49.6,40.0,31.5,98,96,73,30.11,30.04,15,6,0,0.00
2012-10-7,51.8,40.9,32.0,51.3,40.1,31.5,98,97,70,30.14,30.06,12,4,0,0.00
2012-10-8,59.0,43.5,28.4,58.4,43.0,27.9,98,98,98,30.13,29.98,10,2,0,0.00
2012-10-9,62.6,51.5,37.4,62.0,51.0,36.9,98,98,98,30.00,29.79,13,6,0,0.00
2012-10-10,53.6,44.6,35.6,53.0,44.1,35.1,98,98,98,30.14,29.87,22,8,0,0.02
2012-10-11,62.6,48.0,33.8,62.0,47.5,33.3,98,98,98,30.16,30.02,17,4,0,0.00
2012-10-12,62.6,50.1,41.0,62.0,49.6,40.5,98,98,98,30.32,30.10,12,4,0,0.00
2012-10-13,68.0,57.7,44.6,67.4,57.2,44.1,98,98,98,30.17,29.74,12,5,0,0.55
2012-10-14,73.4,63.6,50.0,72.8,63.0,49.5,98,98,98,29.75,29.45,23,12,0,0.13
2012-10-15,62.6,50.7,41.0,62.0,50.2,40.5,98,98,98,29.88,29.74,15,7,0,0.00
2012-10-16,71.6,56.1,37.4,71.0,55.5,36.9,98,98,98,29.88,29.53,16,6,0,0.02
2012-10-17,68.0,60.6,53.6,67.4,60.0,53.0,98,98,98,29.56,29.24,17,7,0,0.72
2012-10-18,59.0,50.1,42.8,58.4,49.6,42.3,98,98,98,29.51,29.34,18,7,0,0.09
2012-10-19,50.0,46.6,44.6,49.5,46.1,44.1,98,98,98,29.60,29.37,17,7,0,0.28
2012-10-20,59.0,47.4,41.0,58.4,46.9,40.5,98,98,98,29.87,29.60,11,4,0,0.05
2012-10-21,71.6,56.1,41.0,71.0,55.6,40.5,98,98,98,29.93,29.85,9,4,0,0.00
2012-10-22,68.0,63.0,57.2,67.4,62.4,56.6,98,98,98,29.97,29.80,12,4,0,0.46
2012-10-23,69.8,63.5,59.0,69.2,62.9,58.4,98,98,98,29.89,29.81,11,5,0,0.36
2012-10-24,78.8,66.5,57.2,78.2,65.9,56.6,98,98,98,29.91,29.81,10,5,0,0.00
2012-10-25,78.8,64.0,42.8,78.2,63.4,42.3,98,98,98,30.00,29.66,18,9,0,0.32
2012-10-26,50.0,41.8,33.8,49.5,41.3,33.3,98,98,98,30.22,29.98,17,9,0,0.09
2012-10-27,50.0,40.4,32.0,49.5,39.1,31.5,98,95,81,30.20,30.10,14,7,0,0.00
2012-10-28,51.8,39.8,32.0,45.0,37.3,31.5,98,91,67,30.15,30.09,16,7,0,0.00
2012-10-29,53.6,41.3,32.0,53.0,40.8,31.5,98,98,98,30.15,29.93,17,8,0,0.04
2012-10-30,50.0,40.4,35.6,49.5,39.9,35.1,98,98,98,29.92,29.67,24,14,0,0.19
2012-10-31,50.0,38.7,32.0,49.5,38.2,31.5,98,98,98,29.81,29.70,17,9,0,0.00
2012-11-1,55.4,42.3,32.0,54.8,41.8,31.5,98,98,98,29.86,29.73,14,6,0,0.00
2012-11-2,51.8,39.6,30.2,51.3,39.1,29.7,98,98,98,30.03,29.77,8,4,0,0.00
2012-11-3,41.0,37.2,30.2,40.5,36.7,29.7,98,98,98,30.11,30.02,9,3,0,0.07
2012-11-4,48.2,36.5,28.4,44.1,34.6,27.9,98,93,72,30.15,30.07,7,2,0,0.00
2012-11-5,48.2,35.5,26.6,47.7,35.0,26.1,98,98,98,30.12,30.00,9,2,0,0.00
2012-11-6,44.6,37.3,26.6,44.1,36.8,26.1,98,98,98,30.01,29.79,8,2,0,0.07
2012-11-7,44.6,41.6,39.2,44.1,41.1,38.7,98,98,98,30.08,29.78,8,4,0,0.01
2012-11-8,48.2,42.2,35.6,47.7,41.7,35.1,98,98,98,30.15,30.02,8,3,0,0.00
2012-11-9,62.6,48.6,33.8,60.5,47.9,33.3,98,97,90,30.05,29.86,13,5,0,0.00
2012-11-10,71.6,59.2,48.2,71.3,58.8,47.7,99,98,98,29.95,29.84,17,8,0,8454660.00
2012-11-11,68.0,57.8,44.6,67.7,57.5,44.3,99,99,99,29.93,29.74,22,10,0,2.20
2012-11-12,44.6,34.4,30.2,44.3,34.1,30.0,99,99,99,30.31,29.89,17,10,0,0.16
2012-11-13,42.8,32.0,23.0,42.5,31.8,22.8,99,99,99,30.45,30.31,7,1,0,0.00
2012-11-14,44.6,33.3,26.6,44.3,33.1,26.4,99,99,99,30.45,30.30,7,1,0,0.00
2012-11-15,48.7,33.4,23.0,48.4,33.2,22.8,99,99,99,30.32,30.24,4,0,0,0.00
2012-11-16,53.6,36.3,22.6,53.3,36.1,22.4,99,99,99,30.40,30.31,4,0,0,0.00
2012-11-17,55.6,39.1,24.4,55.3,38.8,24.2,99,99,99,30.47,30.34,6,1,0,0.00
2012-11-18,60.1,42.0,26.4,59.8,41.8,26.2,99,99,99,30.36,30.25,5,1,0,0.00
2012-11-19,58.1,46.9,33.1,57.8,46.6,32.8,99,99,99,30.25,30.05,7,2,0,0.00
2012-11-20,59.2,52.4,45.5,58.9,52.1,45.2,99,99,99,30.09,29.98,7,1,0,0.00
2012-11-21,62.1,47.3,34.3,61.8,47.0,34.0,99,99,99,30.19,30.08,6,1,0,0.00
2012-11-22,61.3,51.6,42.3,61.0,51.3,42.0,99,99,99,30.08,29.81,16,8,0,0.13
2012-11-23,47.5,34.2,22.6,47.2,33.9,22.4,99,99,99,30.18,29.88,25,14,0,0.02
2012-11-24,32.9,27.0,23.2,32.7,26.8,23.0,99,99,99,30.21,29.95,10,5,0,0.00
2012-11-25,48.4,38.4,28.4,48.1,38.2,28.2,99,99,99,29.98,29.79,12,5,0,0.00
2012-11-26,43.5,33.3,27.0,43.2,33.0,26.8,99,99,99,30.26,29.99,12,5,0,0.00
2012-11-27,38.5,30.4,22.5,38.2,30.2,22.3,99,99,99,30.35,30.22,7,2,0,0.00
2012-11-28,47.3,34.4,21.9,47.0,34.2,21.7,99,99,99,30.34,30.22,12,2,0,0.00
2012-11-29,52.3,39.7,26.8,52.0,39.5,26.6,99,99,99,30.25,30.01,14,6,0,0.00
2012-11-30,59.0,45.3,35.2,58.7,45.0,34.9,99,99,99,30.04,29.96,9,4,0,0.00
2012-12-1,63.0,50.8,36.5,62.7,50.5,36.2,99,99,99,30.06,29.86,13,6,0,0.00
2012-12-2,67.3,58.3,52.9,67.0,58.0,52.6,99,99,99,29.98,29.84,14,5,0,0.00
2012-12-3,72.3,63.2,56.8,72.0,62.9,56.5,99,99,99,29.96,29.78,19,9,0,0.03
2012-12-4,60.6,49.9,38.3,60.3,49.6,38.0,99,99,99,30.17,29.83,12,5,0,0.22
2012-12-5,46.0,37.3,31.6,45.7,37.1,31.4,99,99,99,30.33,30.11,8,3,0,0.00
2012-12-6,50.2,39.1,29.5,49.9,38.9,29.3,99,99,99,30.11,29.86,7,2,0,0.00
2012-12-7,46.8,44.7,43.0,46.5,44.4,42.7,99,99,99,29.87,29.74,7,3,0,0.39
2012-12-8,45.0,41.5,37.4,44.7,41.2,37.1,99,99,99,29.95,29.74,8,4,0,0.00
2012-12-9,49.8,42.9,37.8,49.5,42.6,37.5,99,99,99,29.94,29.63,14,7,0,0.32
2012-12-10,39.6,29.8,26.6,39.3,29.6,26.4,99,99,99,29.91,29.69,17,11,0,0.00
2012-12-11,35.2,28.3,20.5,34.9,28.1,20.3,99,99,99,30.13,29.91,12,4,0,0.00
2012-12-12,45.1,31.7,22.5,44.8,31.4,22.3,99,99,99,30.26,30.13,7,3,0,0.00
2012-12-13,46.6,35.4,27.0,46.3,35.2,26.8,99,99,99,30.27,30.08,14,5,0,0.00
2012-12-14,50.9,39.6,28.9,50.6,39.3,28.7,99,99,99,30.15,29.96,7,3,0,0.00
2012-12-15,53.6,47.1,41.2,53.3,46.8,40.9,99,99,99,29.96,29.52,15,7,0,0.34
2012-12-16,51.8,45.2,39.4,51.5,44.9,39.1,99,99,99,29.65,29.55,10,5,0,0.00
2012-12-17,39.4,37.2,34.9,39.1,36.9,34.6,99,99,99,29.66,29.52,9,4,0,0.05
2012-12-18,46.0,38.6,34.2,45.7,38.3,33.9,99,99,99,29.76,29.50,17,8,0,0.05
2012-12-19,43.5,38.3,34.3,43.2,38.0,34.0,99,99,99,29.97,29.57,14,6,0,0.14
2012-12-20,53.6,40.3,27.7,53.3,40.1,27.5,99,99,99,29.57,29.03,35,16,0,1.61
2012-12-21,29.5,23.1,17.6,29.3,22.9,17.4,99,99,99,30.14,29.54,28,17,0,0.00
2012-12-22,32.5,23.3,12.6,32.3,23.1,12.4,99,99,99,30.18,29.85,8,4,0,0.00
2012-12-23,39.0,28.9,18.7,38.7,28.7,18.5,99,99,99,29.89,29.81,7,2,0,0.00
2012-12-24,33.8,29.9,27.1,33.5,29.7,26.9,99,99,99,29.99,29.71,14,7,0,0.00
2012-12-25,36.1,31.4,27.1,35.8,31.2,26.9,99,99,99,30.17,29.97,17,9,0,0.00
2012-12-26,32.4,30.0,28.0,32.2,29.8,27.8,99,99,99,29.99,29.77,23,15,0,0.13
2012-12-27,32.4,29.3,27.1,32.2,29.1,26.9,99,99,99,30.10,29.99,12,4,0,0.00
2012-12-28,32.5,30.7,28.9,32.3,30.5,28.7,99,99,99,30.04,29.77,8,2,0,0.00
2012-12-29,31.1,27.5,20.5,30.9,27.3,20.3,99,99,99,30.16,29.75,20,11,0,0.00
2012-12-30,36.7,28.2,16.3,36.4,27.9,16.1,99,99,99,30.31,30.12,10,6,0,0.00
2012-12-31,35.6,30.7,23.5,35.3,30.5,23.3,99,99,99,30.11,29.97,14,5,0,0.00
2013-1-1,23.0,18.6,7.3,22.8,18.4,7.1,99,99,99,30.14,30.01,10,5,0,0.00